Kinston, NC

1:41 AM EST on November 25, 2017 (GMT -0500)
Kinston Regional Jetport / Stallings Field

Weather History for KISO - December, 2012

Change the Weather History Date:

Thursday, December 6, 2012

  Actual Average Record
Temperature  
Mean Temperature 48 °F -  
Max Temperature 53 °F 57 °F 80 °F (2013)
Min Temperature 42 °F 38 °F 22 °F (1969)
Degree Days  
Heating Degree Days 18    
Moisture  
Dew Point 36 °F    
Average Humidity 65    
Maximum Humidity 81    
Minimum Humidity 44    
Precipitation  
Precipitation 0.00 in - - ()
Sea Level Pressure  
Sea Level Pressure 30.27 in    
Wind  
Wind Speed 9 mph (NE)    
Max Wind Speed 14 mph    
Max Gust Speed 16 mph    
Visibility 10 miles    
Events      
Averages and records for this station are not official NWS values.
T = Trace of Precipitation, MM = Missing Value Source: NWS Daily Summary

Daily Weather History Graph

Daily Weather History Graph

Search for Another Location

Airport or City:

Trip Planner

Search our weather history database for the weather conditions in past years. The results will help you decide how hot, cold, wet, or windy it might be!

Date:

Astronomy

Dec. 06, 2012 Rise Set
Actual Time 7:05 AM EST 4:57 PM EST
Civil Twilight 6:37 AM EST 5:25 PM EST
Nautical Twilight 6:05 AM EST 5:57 PM EST
Astronomical Twilight 5:35 AM EST 6:28 PM EST
Moon No Moon Rise 12:09 PM EST (12/6)
Length of Visible Light 10h 48m
Length of Day
9h 52m
Waning Gibbous, 49% of the Moon is Illuminated
Dec 6
Waning Gibbous
Dec 13
New
Dec 20
First Quarter
Dec 28
Full
Jan 4
Last Quarter

Hourly Weather History & Observations

Time (EST) Temp. Windchill Dew Point Humidity Pressure Visibility Wind Dir Wind Speed Gust Speed Precip Events Conditions
6:56 AM 42.8 °F 38.0 °F 37.4 °F 81% 30.29 in 10.0 mi NNE 8.1 mph - N/A   Scattered Clouds
7:56 AM 42.8 °F 37.5 °F 37.4 °F 81% 30.31 in 10.0 mi NNE 9.2 mph - N/A   Overcast
8:56 AM 46.4 °F 41.1 °F 37.4 °F 71% 30.32 in 10.0 mi NE 11.5 mph - N/A   Mostly Cloudy
9:56 AM 46.4 °F 40.4 °F 37.4 °F 71% 30.33 in 10.0 mi NE 13.8 mph - N/A   Clear
10:56 AM 48.2 °F - 35.6 °F 62% 30.32 in 10.0 mi NE 12.7 mph 16.1 mph N/A   Clear
11:56 AM 50.0 °F - 33.8 °F 54% 30.30 in 10.0 mi ENE 9.2 mph - N/A   Clear
12:56 PM 51.8 °F - 33.8 °F 50% 30.27 in 10.0 mi NE 8.1 mph - N/A   Clear
1:56 PM 53.6 °F - 32.0 °F 44% 30.26 in 10.0 mi NNE 9.2 mph - N/A   Clear
2:56 PM 53.6 °F - 32.0 °F 44% 30.25 in 10.0 mi ENE 9.2 mph - N/A   Clear
3:56 PM 51.8 °F - 32.0 °F 47% 30.25 in 10.0 mi NE 9.2 mph - N/A   Clear
4:56 PM 50.0 °F - 35.6 °F 58% 30.25 in 10.0 mi NNE 5.8 mph - N/A   Scattered Clouds
5:56 PM 48.2 °F - 35.6 °F 62% 30.26 in 10.0 mi NNE 5.8 mph - N/A   Clear
6:56 PM 48.2 °F - 37.4 °F 66% 30.27 in 10.0 mi NE 10.4 mph - N/A   Overcast
7:56 PM 48.2 °F - 37.4 °F 66% 30.27 in 10.0 mi East 6.9 mph - N/A   Overcast
8:15 PM 47.5 °F - 37.2 °F 68% 30.27 in 10.0 mi ENE 6.9 mph - N/A   Overcast
8:35 PM 47.3 °F - 37.4 °F 68% 30.27 in 10.0 mi ENE 5.8 mph - N/A   Overcast
8:56 PM 46.4 °F 43.5 °F 37.4 °F 71% 30.26 in 10.0 mi ENE 5.8 mph - N/A   Overcast
9:55 PM 47.1 °F - 37.6 °F 69% 30.25 in 10.0 mi East 6.9 mph - N/A   Overcast
10:55 PM 46.0 °F 43.1 °F 37.8 °F 73% 30.23 in 10.0 mi NNE 5.8 mph - N/A   Scattered Clouds
11:15 PM 45.7 °F 42.7 °F 37.9 °F 74% 30.22 in 10.0 mi NNE 5.8 mph - N/A   Scattered Clouds
11:35 PM 45.7 °F 43.4 °F 38.1 °F 75% 30.22 in 10.0 mi NE 4.6 mph - N/A   Mostly Cloudy
11:55 PM 45.9 °F 42.3 °F 38.3 °F 75% 30.22 in 10.0 mi NE 6.9 mph - N/A   Overcast